Location: T�bingen+AIT
(48.5342°N, 9.0700°E)
Time: 20:29:11
(UTC+02:00)

Cosmos 1610 Rocket - Pass Details

Date: 14 September 2017
Orbit: 954 x 1002 km, 82.9° (Epoch: 19 September)

Event Time Altitude Azimuth Distance (km) Brightness Sun altitude
Exits shadow 22:12:39 27° 188° (S) 1,801 5.6 -24.4°
Maximum altitude 22:16:21 89° 275° (W) 1,005 4.5 -24.9°
Drops below altitude 10° 22:22:46 10° 9° (N) 2,784 7.2 -25.8°
Sets 22:25:19 0° 10° (N) 3,739 8.0 -26.1°
